Probability
2 1 1 2 2 1 0 0 0 0 0 0 0 0 0 0 0 0 0 0 0 0 0 0 0 0 0 0 0 0 0 0 0 0 0 0 0 0
2 1 0 1 1 0 0 0 0 0 0 0 0 0 0 0 0 0 0 0 0 0 0 0 0 0 0 0 0 0 0 0 0 0 0 0 0 0
1 0 0 0 0 0 0 0 0 0 0 0 0 0 0 0 0 0 0 0 0 0 0 0 0 0 0 0 0 0 0 0 0 0 0 0 0 0
0 0 0 0 0 0 0 0 0 0 0 0 0 0 0 0 0 0 0 0 0 0 0 0 0 0 0 0 0 0 0 0 0 0 0 0 0 0
0 0 0 0 0 0 0 0 0 0 0 0 0 0 0 0 0 0 0 0 0 0 0 0 0 0 0 0 0 0 0 0 0 0 0 0 0 0
0 0 0 0 0 0 0 0 0 0 0 0 0 0 0 0 0 0 0 0 0 0 0 0 0 0 0 0 0 0 0 0 0 0 0 0 0 0
0 0 0 0 0 0 0 0 0 0 0 0 0 0 0 0 0 0 0 0 0 0 0 0 0 0 0 0 0 0 0 0 0 0 0 0 0 0
0 0 0 0 0 0 0 0 0 0 0 0 0 0 0 0 0 0 0 0 0 0 0 0 0 0 0 0 0 0 0 0 0 0 0 0 0 0
0 0 0 0 0 0 0 0 0 0 0 0 0 0 0 0 0 0 0 0 0 0 0 0 0 0 0 0 0 0 0 0 0 0 0 0 0 0
0 0 0 0 0 0 0 0 0 0 0 0 0 0 0 0 0 0 0 0 0 0 0 0 0 0 0 0 0 0 0 0 0 0 0 0 0 0
0 0 0 0 0 0 0 0 0 0 0 0 0 0 0 0 0 0 0 0 0 0 0 0 0 0 0 0 0 0 0 0 0 0 0 0 0 0
0 0 0 0 0 0 0 0 0 0 0 0 0 0 0 0 0 0 0 0 0 0 0 0 0 0 0 0 0 0 0 0 0 0 0 0 0 0
0 0 0 0 0 0 0 0 0 0 0 0 0 0 0 0 0 0 0 0 0 0 0 0 0 0 0 0 0 0 0 0 0 0 0 0 0 0
0 0 0 0 0 0 0 0 0 0 0 0 0 0 0 0 0 0 0 0 0 0 0 0 0 0 0 0 0 0 0 0 0 0 0 0 0 0
0 0 0 0 0 0 0 0 0 0 0 0 0 0 0 0 0 0 0 0 0 0 0 0 0 0 0 0 0 0 0 0 0 0 0 0 0 0
0 0 0 0 0 0 0 0 0 0 0 0 0 0 0 0 0 0 0 0 0 0 0 0 0 0 0 0 0 0 0 0 0 0 0 0 0 0
0 0 0 0 0 0 0 0 0 0 0 0 0 0 0 0 0 0 0 0 0 0 0 0 0 0 0 0 0 0 0 0 0 0 0 0 0 0
0 0 0 0 0 0 0 0 0 0 0 0 0 0 0 0 0 0 0 0 0 0 0 0 0 0 0 0 0 0 0 0 0 0 0 0 0 0
0 0 0 0 0 0 0 0 0 0 0 0 0 0 0 0 0 0 0 0 0 0 0 0 0 0 0 0 0 0 0 0 0 0 0 0 0 0
0 0 0 0 0 0 0 0 0 0 0 0 0 0 0 0 0 0 0 0 0 0 0 0 0 0 0 0 0 0 0 0 0 0 0 0 0 0
0 0 0 0 0 0 0 0 0 0 0 0 0 0 0 0 0 0 0 0 0 0 0 0 0 0 0 0 0 0 0 0 0 0 0 0 0 0
0 0 0 0 0 0 0 0 0 0 0 0 0 0 0 0 0 0 0 0 0 0 0 0 0 0 0 0 0 0 0 0 0 0 0 0 0 0
0 0 0 0 0 0 0 0 0 0 0 0 0 0 0 0 0 0 0 0 0 0 0 0 0 0 0 0 0 0 0 0 0 0 0 0 0 0
Wind_Speed
7 7 6 5 5 5 4 4 5 4 2 1 1 2 3 3 5 4 5 8 9 9 9 9 9 9 10 10 9 9 8 7 5 4 4 4 6 8
5 5 5 3 4 4 4 4 3 4 3 2 1 2 3 4 6 6 7 9 10 10 9 9 9 8 8 8 8 8 7 7 6 6 6 6 7 8
4 4 4 4 3 3 4 4 3 4 5 3 2 2 4 5 5 5 5 6 6 9 8 8 8 8 8 8 7 7 7 6 6 6 7 7 8 9
4 5 5 4 5 4 4 5 5 5 7 6 2 3 4 4 4 5 5 5 5 8 8 8 8 8 7 7 7 6 6 6 6 7 7 8 9 11
4 5 6 8 7 6 7 7 6 7 6 7 4 3 3 3 4 4 5 4 5 6 7 7 7 7 7 7 6 6 6 6 6 6 7 9 10 12
5 6 6 7 8 9 8 9 9 9 7 7 5 3 3 3 3 3 4 4 4 5 5 5 6 6 7 6 6 6 5 5 6 6 7 9 10 12
7 7 7 9 9 8 9 9 9 8 7 7 6 4 4 3 3 2 2 2 3 4 3 4 4 4 4 5 6 7 6 6 7 7 8 9 10 12
7 7 8 9 13 14 14 11 10 9 8 6 5 5 3 2 1 2 2 2 3 4 4 3 3 3 4 4 7 8 8 8 8 9 9 10 11 12
6 6 7 8 10 11 13 14 12 11 9 7 7 4 2 1 2 3 2 3 2 4 3 3 4 3 3 4 8 9 8 8 9 9 10 11 12 13
5 7 8 7 8 10 11 10 9 8 6 5 6 3 2 1 1 2 1 2 2 3 4 3 4 3 4 4 7 11 11 10 10 10 11 11 13 14
5 5 8 8 11 13 11 10 9 7 8 10 9 8 7 6 3 3 3 3 3 3 4 3 3 3 3 3 6 10 12 12 12 12 12 12 13 13
4 5 7 9 11 11 10 10 9 6 6 8 8 8 8 9 9 5 3 3 2 3 4 4 3 4 4 3 4 6 8 10 13 12 12 13 13 9
5 4 4 10 11 10 9 7 9 8 7 8 6 6 6 6 6 5 4 3 3 2 3 3 2 3 3 4 4 5 6 7 8 9 10 12 13 10
6 5 6 10 11 11 8 11 13 9 6 6 6 5 4 4 4 4 5 4 3 3 3 2 2 2 3 3 4 6 6 6 8 8 8 10 11 12
6 9 11 12 11 9 11 13 9 7 6 6 5 3 2 2 2 3 4 4 4 5 5 4 3 2 2 3 4 5 5 6 8 8 8 8 9 9
8 10 12 11 9 10 9 6 5 5 5 5 4 3 2 3 3 3 3 3 4 5 6 6 5 4 3 3 4 5 5 6 7 7 7 6 8 8
10 6 5 5 5 5 5 5 4 5 4 3 4 4 4 3 3 2 2 3 3 3 5 5 4 3 4 4 4 5 5 5 6 7 6 6 7 8
11 8 6 6 7 6 6 5 4 4 4 4 4 4 4 4 3 2 2 3 3 3 3 4 4 3 3 3 4 5 5 5 5 7 6 6 7 8
8 8 7 7 7 7 6 6 5 5 4 5 5 4 4 4 3 3 2 2 2 2 2 2 3 3 4 5 4 5 5 5 5 5 6 5 6 7
7 9 8 8 7 7 7 5 5 5 4 4 4 4 4 4 4 3 3 2 1 1 1 2 2 2 2 3 3 4 6 5 5 5 5 4 3 4
8 8 8 8 8 7 7 6 6 6 6 5 5 5 5 4 4 4 3 3 2 1 0 1 2 3 2 1 1 3 4 5 4 4 5 5 5 6
10 9 8 8 8 8 7 7 7 6 7 6 6 6 5 5 5 5 5 4 3 2 1 0 2 1 1 2 2 3 4 4 4 4 6 6 5 6
10 9 8 9 8 7 7 8 9 7 7 7 7 6 6 6 5 5 5 5 4 4 2 1 1 1 1 1 2 2 4 5 4 4 4 7 7 5
Wind_Direction
226 219 215 208 199 194 180 165 159 160 159 97 55 15 19 48 41 59 65 63 65 66 68 69 70 68 67 66 64 60 56 51 41 21 351 316 293 280
217 209 204 194 189 184 181 170 159 146 133 111 66 24 29 61 58 68 70 65 63 65 68 71 72 72 70 67 63 57 51 43 30 15 358 338 319 305
199 189 184 169 166 160 154 151 144 130 123 105 52 33 48 62 61 63 65 63 60 58 64 68 69 67 64 62 59 53 46 37 26 13 358 342 324 310
177 163 154 143 130 127 128 125 121 118 125 122 76 44 48 48 57 61 54 57 56 51 54 60 62 60 59 58 54 48 39 29 19 6 353 341 328 316
137 137 133 129 119 114 111 109 107 103 103 114 98 60 56 46 53 54 50 39 45 43 45 48 48 52 55 52 47 40 30 17 3 350 339 332 326 318
92 102 111 117 119 116 111 111 110 105 102 103 95 75 60 41 57 55 50 35 31 23 25 29 32 41 42 37 33 27 17 3 350 338 328 321 316 312
84 85 91 106 111 114 120 120 116 111 108 103 96 82 60 51 49 29 59 41 42 21 6 19 17 26 27 19 14 5 357 349 339 330 324 320 316 313
93 86 92 96 99 98 103 107 117 121 118 109 102 97 83 66 50 53 54 51 38 7 1 5 10 16 19 19 4 358 353 344 336 328 323 320 318 316
101 102 102 100 101 103 95 90 88 96 109 120 116 117 117 122 101 81 70 72 60 355 349 2 358 355 359 6 0 358 352 345 337 330 325 322 319 316
95 107 112 108 110 111 106 96 88 81 90 97 111 113 113 135 128 106 112 100 69 33 12 9 345 337 334 349 1 1 356 348 340 335 330 327 325 320
88 103 118 118 123 119 112 107 97 86 85 88 88 83 79 79 93 98 81 77 54 20 14 4 341 328 325 335 352 359 356 352 345 340 338 335 330 326
94 93 114 127 134 129 125 123 117 112 108 92 73 63 64 62 58 65 82 83 66 27 6 357 353 352 344 335 338 353 356 351 348 347 346 343 340 337
132 123 122 132 132 130 128 128 135 129 113 103 92 78 67 60 54 52 54 74 75 47 354 348 358 5 352 324 326 342 353 355 353 351 352 351 348 349
145 139 134 134 129 125 119 124 124 118 113 106 98 86 76 65 54 52 55 58 62 54 359 6 31 15 10 8 346 334 341 358 359 355 357 357 358 356
140 140 134 128 119 116 123 128 126 122 120 115 111 100 82 63 65 63 50 54 65 54 43 35 44 48 43 25 359 344 335 345 357 358 2 10 9 5
126 125 118 111 104 109 114 116 120 128 129 127 122 110 98 88 69 60 55 39 47 33 29 34 32 43 45 28 17 4 352 346 351 355 359 14 19 17
136 123 121 123 121 120 116 116 120 124 120 127 130 125 117 102 83 66 66 62 60 34 13 6 12 41 52 32 21 11 359 357 356 353 356 14 22 18
140 146 149 152 153 151 147 142 145 150 147 145 142 138 132 122 112 96 88 84 74 48 26 4 358 23 46 69 36 4 4 360 356 4 10 13 18 14
148 160 163 166 166 164 163 161 165 165 159 159 156 152 146 140 135 130 125 112 91 63 36 16 17 25 26 20 17 25 359 349 356 11 17 13 8 2
168 170 173 174 173 174 175 172 165 161 166 170 169 166 164 159 157 156 157 153 135 95 53 36 25 14 6 353 336 344 4 356 354 3 3 2 4 343
179 177 178 177 179 180 181 179 176 177 180 179 181 180 178 175 175 175 172 168 167 164 117 21 345 320 273 279 334 5 11 15 10 359 351 356 4 10
183 182 182 182 182 182 181 181 182 185 186 191 192 191 189 189 189 187 186 184 188 189 189 86 9 23 52 21 10 355 354 2 13 31 37 24 7 11
184 184 183 184 185 182 182 186 188 192 194 198 198 198 195 197 199 195 195 196 191 188 187 175 108 68 49 15 353 351 356 359 359 11 30 19 24 26